Regional Weather Roundup
Issued by NWS San Diego, CA

Home | Current Version | Previous Version | Text Only | Print | Product List | Glossary On
Versions: 1 2 3 4 5 6 7 8 9 10 11 12 13 14 15 16 17 18 19 20 21 22 23 24 25 26 27 28 29 30 31 32 33 34 35 36 37 38 39 40 41 42 43 44 45 46 47 48 49 50
588
ASUS46 KSGX 030011
RWRSGX

SAN DIEGO HOURLY WEATHER ROUNDUP
NATIONAL WEATHER SERVICE SAN DIEGO CA
400 PM PST FRI DEC 02 2016

NOTE: "FAIR" INDICATES FEW OR NO CLOUDS BELOW 12,000 FEET WITH NO
SIGNIFICANT WEATHER AND/OR OBSTRUCTIONS TO VISIBILITY.

CAZ042-043-060-061-PZZ750-775-030100-

GREATER SAN DIEGO AREA

CITY           SKY/WX    TMP DP  RH WIND       PRES   REMARKS
SAN DIEGO AP   PTCLDY    66  35  31 W8        29.95R
NATIONAL CITY    N/A     65  40  39 CALM      29.94R
CHULA VISTA      N/A     65  41  41 W3        29.86R
IMPERIAL BEACH PTCLDY    64  39  39 NW10      29.95R
BROWN FIELD    PTCLDY    62  37  39 W8        29.94R
MIRAMAR MCAS   PTCLDY    68  23  18 N10       29.93R
MONTGOMERY FLD CLEAR     66  19  16 NW13      29.94R

$$

NORTH SAN DIEGO COUNTY

CITY           SKY/WX    TMP DP  RH WIND       PRES   REMARKS
CAMP PENDLETON CLEAR     64  15  15 N13G22    29.96R
OCEANSIDE AP   CLEAR     65  16  15 N9G25     29.94R
OCEANSIDE HBR    N/A     65  19  17 NW6       29.98R
VISTA            N/A     65  24  21 CALM      29.94R
CARLSBAD       CLEAR     64  17  16 N12G21    29.94R
DEL MAR          N/A     64  24  21 CALM      29.96R
LA JOLLA SCRIP   N/A     64  36  35 N14       29.94R
FALLBROOK        N/A     61  21  21 SW12      29.95R
ESCONDIDO        N/A     63  23  21 NW9       29.96R
SAN MARCOS       N/A     63  21  20 NE10      29.97R
POWAY            N/A     64  27  24 N3        29.96R

$$

EAST SAN DIEGO COUNTY

CITY           SKY/WX    TMP DP  RH WIND       PRES   REMARKS
RAMONA         CLEAR     61  19  19 NE6       29.94R
SANTEE LAKES     N/A     66  31  26 W3        29.92S
LA MESA          N/A     64  29  27 CALM      29.87R
JAMUL            N/A     62  35  36 CALM      29.96R
DESCANSO N       N/A     47  20  34 E3        29.94R
CAMPO            N/A     50  14  23 NE23      29.92R

$$

ORANGE COUNTY AND THE LOS ANGELES BASIN

CITY           SKY/WX    TMP DP  RH WIND       PRES   REMARKS
JOHN WAYNE AP  CLEAR     64  11  12 NE16G37   29.99R
LAGUNA BEACH     N/A     64  20  19 NW15      29.94R
LAKE FOREST FR   N/A     59  13  16 NE18      29.87R
HUNTINGTON BCH   N/A     64  19  18 E3        30.01S
FULLERTON      CLEAR     66  41  40 NE10      29.99R
LONG BEACH     CLEAR     65  14  14 CALM      30.00R
L.A. AP        CLEAR     63   9  12 N18G29    30.01R
L.A. DOWNTOWN  CLEAR     62  10  13 N9G25     30.01R

$$

THE INLAND EMPIRE

CITY           SKY/WX    TMP DP  RH WIND       PRES   REMARKS
CORONA         CLEAR     60  11  14 NE24G37   30.02R
CHINO          CLEAR     61  10  13 NE8G28    30.01R
ONTARIO        CLEAR     58   7  13 NE20G37   30.00R
SAN BERNARDINO CLEAR    N/A N/A N/A MISG      30.04R
RIVERSIDE AP   CLEAR     59  12  15 NE17G31   30.03R
MORENO VALLEY    N/A     55  24  29 SE7       28.13R
MARCH ARB      CLEAR     56  11  16 N24       30.00R
PERRIS           N/A     56  21  25 SW9       30.03R
HEMET EAST       N/A     58  13  17 CALM      30.04R
FRENCH VALLEY  NOT AVBL
TEMECULA         N/A     60  24  25 NW12      29.97R

$$

SAN BERNARDINO AND RIVERSIDE COUNTY MOUNTAINS

CITY           SKY/WX    TMP DP  RH WIND       PRES   REMARKS
BIG BEAR AP    CLEAR     28   3  34 E10G21    30.04R WCI  19
ANGELUS OAKS     N/A     32  13  45 NE5       30.06R WCI  27
PINE COVE        N/A     35  13  40 CALM      30.05R

$$

SOUTHERN DESERT INCLUDING THE COACHELLA VALLEY

CITY           SKY/WX    TMP DP  RH WIND       PRES   REMARKS
PALM SPRINGS   CLEAR     61  11  14 N23G32    30.06R
PALM DESERT      N/A     63  14  15 N13       31.00S
THERMAL        CLEAR     65  12  12 NW10      30.00R
BLYTHE         PTCLDY    63  19  18 N23G30    29.95S
IMPERIAL AP    CLEAR     64  22  20 N15       29.96R
EL CENTRO NAS  PTCLDY    63  21  20 N14       29.98S
YUMA AZ        CLEAR     65  21  18 N17G25    29.94
MEXICALI       CLEAR     64  12  13 NW16      29.95S

$$

UPPER DESERT

CITY           SKY/WX    TMP DP  RH WIND       PRES   REMARKS
VICTORVILLE AP CLEAR     46   1  15 NE22G28   30.11R
HESPERIA         N/A     46   9  22 N3        30.29R
PALMDALE       CLEAR     49   5  16 NE22      30.11R
LANCASTER      CLEAR     50   5  16 NE21G31   30.12R
EDWARDS AFB    CLEAR     50   3  14 NE21      30.08S
DAGGETT        CLEAR     52   6  15 N25G33    30.11R
29 PALMS N     CLEAR     52   7  16 N18G28    30.12S
NEEDLES        CLEAR     60  19  20 N30G38    30.00S

$$

REGIONAL REPORTS

CITY           SKY/WX    TMP DP  RH WIND       PRES   REMARKS
SANTA BARBARA  CLEAR     60  40  47 W5        30.05R
SANDBERG       CLEAR     44   4  19 E23G33    30.08
LAS VEGAS NV   PTCLDY    53  12  19 N17G23    30.09S
PHOENIX AZ     MOCLDY    60  25  26 W8        29.90R
TIJUANA        PTCLDY    63  30  29 W7        29.97R
ENSENADA NW      N/A     65  32  29 W10       29.90R

$$

OFFSHORE ISLANDS

CITY           SKY/WX    TMP DP  RH WIND       PRES   REMARKS
CATALINA ARPT  CLEAR     56  29  35 NW6       30.01R
SAN CLEMENTE I CLEAR     62  31  31 N21       30.01S
SAN NICOLAS IS CLEAR     56  44  64 NW16      30.04R

$$

MARINE AND OFFSHORE BUOY REPORTS

STATION/POSITION SKY/WX   TEMP    WIND        PRES    SWELL
                          AIR SEA DIR/SP/G            HT/PER/DIR
                          (F)     (DEG/KT/KT) (MB)    (FT/S/D)
TANNER BANKS               59 62  330/ 19/ 23 1016.4R   8/320/13
S CLEMENTE BASIN           62 62  340/ 19/ 25 1014.5R   5/310/11
SAN NICOLAS IS.               59                N/A     7/310/12
SO. S. ROSA ISLA           57 58  320/ 16/ 19 1017.8R   8/310/11
W. S. BARBARA CH           58 57  330/ 23/ 27 1017.5R   8/310/12
M. S. BARBARA CH                                N/A     5/270/13
S. MONICA BASIN            63 60   40/ 17/ 21 1016.9R   3/220/13
S PEDRO CHANNEL               62                N/A     3/270/14
OCEANSIDE OFFSHR              63                N/A     2/210/14
TORREY PINES OTR              63                N/A     3/280/13
POINT LOMA SOUTH              62                N/A     3/280/11

$$





USA.gov is the U.S. government's official web portal to all federal, state and local government web resources and services.